This is the latest recevied weather packets stored in our database for station/object SA7AHC. If no packets are shown the sender has not sent any weather packets the latest 10 day(s).
| Time | Temp. | Humidity | Pressure | Rain* | Wind** | Luminosity | Snow |
|---|---|---|---|---|---|---|---|
| 1777900135 | 14.44° C | 55% | 1008.6 hPa | 0 mm | - | 656 W/m² | - |
| 1777899533 | 14.44° C | 58% | 1008.5 hPa | 0 mm | - | 670 W/m² | - |
| 1777898933 | 14.44° C | 62% | 1008.5 hPa | 0 mm | - | 694 W/m² | - |
| 1777898331 | 13.89° C | 65% | 1008.4 hPa | 0 mm | - | 694 W/m² | - |
| 1777897731 | 13.89° C | 68% | 1008.3 hPa | 0 mm | - | 728 W/m² | - |
| 1777897129 | 13.33° C | 77% | 1008.2 hPa | 0 mm | - | 826 W/m² | - |
| 1777896529 | 13.33° C | 77% | 1008.2 hPa | 0 mm | - | 202 W/m² | - |
| 1777895931 | 13.33° C | 77% | 1008.1 hPa | 0 mm | - | 800 W/m² | - |
| 1777895334 | 12.78° C | 87% | 1013.2 hPa | 0 mm | - | 914 W/m² | - |
| 1777894729 | 12.22° C | 85% | 1013.1 hPa | 0 mm | - | 209 W/m² | - |
| 1777894131 | 11.67° C | 89% | 1008.2 hPa | 0 mm | - | 279 W/m² | - |
| 1777893531 | 11.67° C | 88% | 1008.1 hPa | 0 mm | - | 134 W/m² | - |
| 1777892929 | 11.67° C | 88% | 1008.1 hPa | 0 mm | - | 260 W/m² | - |
| 1777892325 | 11.67° C | 88% | 1008.1 hPa | 0 mm | - | 438 W/m² | - |
| 1777891724 | 11.67° C | 90% | 1008.2 hPa | 0 mm | - | 353 W/m² | - |
| 1777891125 | 11.11° C | 91% | 1008.2 hPa | 0 mm | - | 200 W/m² | - |
| 1777890521 | 11.67° C | 92% | 1008.1 hPa | 0 mm | - | 279 W/m² | - |
| 1777889921 | 11.11° C | 93% | 1008.8 hPa | 0 mm | - | 346 W/m² | - |
| 1777889318 | 10.56° C | 93% | 1008.7 hPa | 0 mm | - | 230 W/m² | - |
| 1777888719 | 10.56° C | 95% | 1008.7 hPa | 0 mm | - | 315 W/m² | - |
| 1777888121 | 10.56° C | 94% | 1007.9 hPa | 0 mm | - | 84 W/m² | - |
| 1777887519 | 10.56° C | 95% | 1007.9 hPa | 0 mm | - | 118 W/m² | - |
| 1777886920 | 10.56° C | 95% | 1007.8 hPa | 0 mm | - | 158 W/m² | - |
| 1777886317 | 10.56° C | 95% | 1007.8 hPa | 0 mm | - | 88 W/m² | - |
| 1777885716 | 10.56° C | 96% | 1007.8 hPa | 0 mm | - | 123 W/m² | - |
* Rain latest hour (hover to see other rain measurements)
** Current wind speed in m/s (hover to see current wind gust speed)